Location: Bayshore Village Mobile Home Park
(26.6945°N, 81.8642°W)
Time: 22:24:53
(UTC+00:00)

Cosmos 1782 - Pass Details

Date: 17 June 2021
Orbit: 537 x 550 km, 82.5° (Epoch: 31 July)

Event Time Altitude Azimuth Distance (km) Brightness Sun altitude
Rises 08:56:37 0° 346° (NNW) 2,708 6.7 -19.0°
Reaches altitude 10° 08:58:50 10° 341° (NNW) 1,815 5.7 -18.6°
Maximum altitude 09:02:40 46° 267° (W) 735 3.1 -18.0°
Enters shadow 09:03:23 41° 234° (SW) 799 3.1 -17.9°
